Flag for U.S.A. Weather past 2 weeks in Independence, Missouri, U.S.A.

Now
66 °F

Mostly cloudy.


Feels Like: 66 °F
Forecast: 64 / 74 °F
Wind: 10 mph from Northeast

Location: Lee's Summit Municipal Airport

Current Time: Jul 7, 2015 at 10:30:05 AM

Latest Report: Jul 7, 2015 at 9:53 AM


Visibility: 3 mi

Pressure: 30.04 "Hg

Humidity: 84%

Dew point: 61 °F

Location of IndependenceLocation

Historic Weather in Independence — Graph

°F

Independence temperature yesterday

Maximum temperature yesterday: 88 °F (at 2:53 PM)
Minimum temperature yesterday: 71 °F (at 6:53 PM)
Average temperature yesterday: 77 °F

Past Weeks' High & Low Weather Summary

 TemperatureHumidityPressure
High94 °F (Jun 25, 2:53 PM)97% (Jul 7, 2:53 AM)30.23 "Hg (Jul 7, 2:53 AM)
Low60 °F (Jul 4, 5:53 AM)42% (Jun 28, 2:53 PM)29.77 "Hg (Jul 1, 6:53 PM)
Average76 °F72%29.93 "Hg
* Reported Jun 22 8:53 AM — Jul 7 8:53 AM, Independence, Weather by CustomWeather, © 2015

Note: Actual official high and low records may vary slightly from our data, if they occured in-between our weather recording intervals... More about our weather records

Advertising

Independence weather history for previous 24 hours

 ConditionsComfort  
Time TempWeatherWind HumidityBarometerVisibility
8:53 AM
Tue, Jul 7
64 °FFog.9 mph90%30.02 "Hg2 mi
7:53 AM63 °FFog.10 mph87%30.02 "Hg3 mi
6:53 AM61 °FFog.8 mph93%30.01 "Hg3 mi
5:53 AM61 °FFog.14 mph90%30.00 "Hg5 mi
4:53 AM61 °FFog.15 mph90%29.97 "Hg5 mi
3:53 AM62 °FRain. Fog.22 mph93%29.96 "Hg3 mi
2:53 AM65 °FRain. Fog.22 mph97%29.94 "Hg4 mi
1:57 AM71 °FHeavy rain. Fog.7 mph93%29.96 "Hg2 mi
12:53 AM71 °FLight rain. Fog.No wind96%29.93 "Hg4 mi
11:53 PM
Mon, Jul 6
72 °FLow clouds.6 mph91%29.92 "Hg10 mi
10:53 PM71 °FLow clouds.9 mph93%29.90 "Hg10 mi
9:53 PM72 °FLow clouds.6 mph93%29.85 "Hg10 mi
8:53 PM72 °FLight rain. Mostly cloudy.3 mph91%29.86 "Hg10 mi
8:00 PM72 °FThunderstorms. Mostly cloudy.5 mph91%29.88 "Hg7 mi
6:53 PM71 °FThunderstorms. Fog.5 mph90%29.86 "Hg4 mi
5:53 PM76 °FThunderstorms. Mostly cloudy.16 mph80%29.86 "Hg10 mi
4:53 PM85 °FScattered clouds.10 mph68%29.82 "Hg10 mi
3:53 PM88 °FBroken clouds.13 mph63%29.78 "Hg10 mi
2:53 PM88 °FScattered clouds.14 mph65%29.83 "Hg10 mi
1:53 PM87 °FScattered clouds.17 mph67%29.86 "Hg10 mi
12:53 PM85 °FPartly sunny.14 mph70%29.88 "Hg10 mi
11:53 AM83 °FSunny.15 mph72%29.89 "Hg10 mi
10:53 AM80 °FSunny.13 mph76%29.91 "Hg10 mi
Weather by CustomWeather, © 2015

See weather overviewHow to use our weather pages